sat.trackr.live / text

‹ back to catalog

STARLINK-33797

NORAD 63448 · 2025-069R

PAYLOAD ACTIVE UNKNOWN

§ Identity

Operator
Country
US
Launch date
2025-04-04
Launch site
AFWTR
Launch vehicle
Mass (kg)
RCS (m²)

Purposes: comms

External: N2YO · Heavens-Above · Gunter

§ Orbital elements

Epoch: 2026-05-24T23:31:49.767168Z

Period
93.37 min
Inclination
53.1583°
Eccentricity
0.0001619
Mean motion
15.42185620 rev/d
Perigee alt
438.6 km
Apogee alt
440.8 km
Semi-major
6,817.8 km
B*
8.3193e-4
RAAN
145.3819°
Arg perigee
90.0911°
Mean anomaly
270.0281°
Rev number
6,506

§ Raw data

STARLINK-337971 63448U 25069R   26144.98043712  .00035992  00000+0  83193-3 0  99922 63448  53.1583 145.3819 0001619  90.0911 270.0281 15.42185620 65061

JSON: /api/v1/satellites/63448 · /tle

For live sub-satellite position, see the globe view (requires WebGL).

§ Visibility from observer

Set your observer location to see the next 7 days of passes ≥ 10°. The values pass through the URL so the page stays shareable.

No JS? Fill the form by hand. The geolocation button needs JavaScript.